Regional Weather Roundup
Issued by NWS

Home | Current Version | Previous Version | Text Only | Print | Product List | Glossary Off
Versions: 1 2 3 4 5 6 7 8 9 10 11 12 13 14 15 16 17 18 19 20 21 22 23 24 25 26 27 28 29 30 31 32 33 34 35 36 37 38 39 40 41 42 43 44 45 46 47 48 49 50

000
ASUS43 KLMK 191202
RWRKY
KENTUCKY REGIONAL WEATHER ROUNDUP
NATIONAL WEATHER SERVICE LOUISVILLE KY
800 AM EDT SAT APR 19 2014

NOTE "FAIR" INDICATES FEW OR NO CLOUDS BELOW 12,000 FEET
WITH NO SIGNIFICANT WEATHER AND/OR OBSTRUCTIONS TO VISIBILITY.

KYZ001>023-026-027-061>063-070>075-191300-
WESTERN AND SOUTH CENTRAL KENTUCKY

CITY           SKY/WX    TMP DP  RH WIND       PRES   REMARKS
PADUCAH        CLEAR     50  42  74 CALM      30.23R
HENDERSON      CLEAR     52  41  66 NE7       30.26R
OWENSBORO      CLEAR     54  43  66 NE9       30.26R
HOPKINSVILLE   CLEAR     48  45  87 N7        30.22R
BOWLING GREEN  CLEAR     45  44  97 CALM      30.23R
GLASGOW        NOT AVBL
$$

KYZ024-025-028>034-038-045-046-053-191300-
NORTH CENTRAL KENTUCKY

CITY           SKY/WX    TMP DP  RH WIND       PRES   REMARKS
LOUISVILLE/SDF MOSUNNY   51  41  68 N7        30.26R
LOUISVILLE/LOU SUNNY     52  40  63 N5        30.27R
FORT KNOX      SUNNY     52  40  62 N8        30.24R
$$

KYZ035>037-039>044-047>052-055>060-089>105-191300-
NORTHEAST KENTUCKY

CITY           SKY/WX    TMP DP  RH WIND       PRES   REMARKS
LEXINGTON      SUNNY     50  40  68 NE8       30.24R
COVINGTON      MOSUNNY   49  39  68 N8        30.28R
FRANKFORT      SUNNY     50  39  66 N6        30.25R
$$

KYZ054-064>069-076>088-106>120-191300-
SOUTHEAST KENTUCKY

CITY           SKY/WX    TMP DP  RH WIND       PRES   REMARKS
JACKSON        MOSUNNY   55  34  45 VRB3      30.22R
LONDON         PTSUNNY   53  36  52 NE7       30.21R
SOMERSET       NOT AVBL
MIDDLESBORO    NOT AVBL
MONTICELLO     MOSUNNY   41  40  96 CALM      30.23R
$$




USA.gov is the U.S. government's official web portal to all federal, state and local government web resources and services.